Home > Weather > Halden > Past weeks

Flag for Norway Past Weather in Halden, Norway — Yesterday and Last 2 Weeks

Now
55 °F

Cool.


Feels Like: 52 °F
Forecast: 53 / 68 °F
Wind: 8 mph from Northeast

Location: Stromtangen Fyr

Current Time: May 29, 2016 at 6:05:12 AM

Latest Report: May 29, 2016 at 5:00 AM


Visibility: N/A

Pressure: 30.12 "Hg

Humidity: N/A

Dew Point: N/A

Location of HaldenLocation

Past Weather in Halden — Graph

°F

Halden Temperature Yesterday

Maximum temperature yesterday: 65 °F (at 5:00 PM)
Minimum temperature yesterday: 51 °F (at 6:00 AM)
Average temperature yesterday: 57 °F

High & Low Weather Summary for the Past Weeks

 TemperatureHumidityPressure
High66 °F (May 27, 1:00 PM)100% (May 21, 10:00 PM)30.19 "Hg (May 21, 10:00 PM)
Low43 °F (May 15, 5:00 AM)28% (May 15, 6:00 PM)29.65 "Hg (May 18, 6:00 AM)
Average53 °F78%29.89 "Hg
* Reported May 14 4:00 AM — May 29 4:00 AM, Halden, Weather by CustomWeather, © 2016

Note: Actual official high and low records may vary slightly from our data, if they occured in-between our weather recording intervals... More about our weather records

Advertising

Halden Weather History for the Previous 24 Hours

Scroll right to see more
 ConditionsComfort  
Time TempWeatherWind HumidityBarometerVisibility
4:00 AM
Sun, May 29
55 °FCool.7 mphN/A30.13 "HgN/A
3:00 AM55 °FCool.7 mphN/A30.14 "HgN/A
2:00 AM56 °FCool.7 mph98%30.15 "HgN/A
1:00 AM57 °FCool.7 mph96%30.15 "HgN/A
12:00 AM57 °FCool.6 mph96%30.16 "HgN/A
11:00 PM
Sat, May 28
60 °FCool.5 mph86%30.16 "HgN/A
10:00 PM59 °FCool.6 mph92%30.15 "HgN/A
9:00 PM60 °FCool.5 mph91%30.15 "HgN/A
8:00 PM61 °FCool.6 mph83%30.14 "HgN/A
7:00 PM62 °FCool.5 mph77%30.14 "HgN/A
6:00 PM64 °FMild.2 mph70%30.14 "HgN/A
5:00 PM65 °FMild.1 mph66%30.15 "HgN/A
4:00 PM62 °FCool.2 mph77%30.15 "HgN/A
3:00 PM62 °FCool.1 mph73%30.16 "HgN/A
2:00 PM59 °FCool.3 mph85%30.17 "HgN/A
1:00 PM58 °FCool.1 mph91%30.17 "HgN/A
12:00 PM56 °FCool.1 mph90%30.17 "HgN/A
11:00 AM59 °FCool.3 mph80%30.16 "HgN/A
8:00 AM52 °FCool.6 mph98%30.17 "HgN/A
7:00 AM51 °FCool.3 mphN/A30.18 "HgN/A
6:00 AM51 °FCool.5 mphN/A30.18 "HgN/A
Weather by CustomWeather, © 2016

See weather overviewHow to use our weather pages